Preview of NWS' New Version of Forecast
This preview is not operational and should not be used for support decisions.

Regional Weather Roundup (RWR)

Issued by Gray - Portland, ME (GYX)

                            
000
ASUS41 KGYX 211405
RWRGYX
WEATHER ROUNDUP FOR MAINE AND NEW HAMPSHIRE
NATIONAL WEATHER SERVICE GRAY ME
1000 AM EDT SUN APR 21 2019

MEZ002-005-006-010-012-015-018-020-021-024-026-027-029-211500-
MAINE
  
CITY           SKY/WX    TMP DP  RH WIND       PRES   REMARKS
PORTLAND       LGT RAIN  55  53  93 SW3       30.05S FOG              
SANFORD        CLOUDY    59  57  93 SW5       30.05R                  
WISCASSET      FOG       52  52 100 CALM      30.08R VSB 1/2          
ROCKLAND       CLOUDY    49  49 100 SW6       30.08R FOG              
FRYEBURG       CLOUDY    60  57  89 CALM      30.04R                  
LEWISTONAUBURN   N/A     54  54 100 SW5       30.06S                  
AUGUSTA        LGT RAIN  53  53 100 S7        30.06R VSB 3/4          
WATERVILLE     LGT RAIN  56  55  97 S8        30.03R                  
BANGOR         LGT RAIN  54  53  97 S7        30.05F FOG              
GREENVILLE       N/A     50  49  96 SE9       29.99R                  
MILLINOCKET    FOG       47  46  97 CALM      30.05R VSB 1/2          
HOULTON        FOG       53  52  96 S8        30.02S VSB 1            
PRESQUE ISLE   CLOUDY    48  47  96 S12       29.98F FOG              
FRENCHVILLE    FOG       45  42  89 SE12      29.95F VSB<1/4          
CARIBOU        FOG       48  46  93 S7        29.97F VSB 1/2          
$$

NHZ002-005-008-009-011-012-014-211500-
NEW HAMPSHIRE
  
CITY           SKY/WX    TMP DP  RH WIND       PRES   REMARKS
PORTSMOUTH     CLOUDY    59  59 100 CALM      30.03R                  
ROCHESTER      CLOUDY    59  58  96 CALM      30.04R                  
NASHUA         CLOUDY    60  57  89 SE5       30.03S                  
MANCHESTER     CLOUDY    60  55  83 S5        30.02R                  
CONCORD        CLOUDY    59  55  87 E5        30.02F                  
LACONIA        CLOUDY    59  56  89 VRB3      30.04R                  
BERLIN         CLOUDY    61  51  70 S3        30.01R                  
WHITEFIELD     CLOUDY    59  51  75 NW3       30.01R                  
JAFFREY        CLOUDY    58  53  84 S6        30.02F                  
KEENE          CLOUDY    59  54  83 SW7       30.01F                  
LEBANON        PTSUNNY   62  50  64 VRB3      29.99F                  
MT WASHINGTON  LGT RAIN  37  34  87 SW25G35     N/A                   
$$

VTZ005-007-008-211500-
VERMONT
  
CITY           SKY/WX    TMP DP  RH WIND       PRES   REMARKS
ST JOHNSBURY     N/A     60  52  74 MISG      29.99R                  
MONTPELIER     FAIR      59  51  75 S9        30.03R                  
BURLINGTON     PTSUNNY   63  49  60 S16       29.95R                  
$$

MAZ007-012-024-CTZ003-RIZ002-NYZ038-NYZ072-211500-
SOUTHERN NEW ENGLAND AND NY
  
CITY           SKY/WX    TMP DP  RH WIND       PRES   REMARKS
BOSTON         CLOUDY    61  56  83 SE7       30.04R                  
WORCESTER      CLOUDY    57  54  89 VRB3      30.02R                  
NANTUCKET      CLOUDY    51  51 100 SW9       30.05R FOG              
PROVIDENCE     CLOUDY    59  56  89 CALM      30.04R                  
HARTFORD       LGT RAIN  59  54  83 S8        30.02R                  
ALBANY         PTSUNNY   60  50  69 S8        29.97R                  
NEW YORK CITY  PTSUNNY   59  53  80 S12       29.97S                  
$$

ANZ081-ANZ082-ANZ150-NHZ014-MEZ023>029-211500-
COASTAL MARINE OBSERVATIONS
  
STATION/POSITION TIME  TEMP    WIND        PRES    WAVE
                       AIR SEA DIR/SP/G            HT/PER
                 (UTC) (F)     (DEG/KT/KT) (MB)    (FT/S)
ISLE OF SHOALS   1300   52     210/  8/ 10 1016.4R
JEFFREYS LEDGE   1338      43                N/A     6/10
$$

.............KEY..............
   WCI - WIND CHILL
   TC  - TEMPERATURE IN CELSIUS
   VSB - VISIBILITY IN MILES
   HX  - HEAT INDEX
   FAIR- INDICATES FEW OR NO CLOUDS BELOW 12,000 FT, WITH NO 
         SIGNIFICANT WEATHER AND/OR OBSTRUCTIONS TO VISIBILITY.